Location: Dąbki
(54.3786°N, 16.3141°E)
Time: 00:27:15
(UTC+02:00)

ISS - Visible Passes

Search period start: 21 September 2018 00:00
Search period end: 01 October 2018 00:00
Orbit: 403 x 408 km, 51.6° (Epoch: 20 September)

Date Brightness Start Highest point End Pass type
(mag) Time Alt. Az. Time Alt. Az. Time Alt. Az.
23 Sep -1.2 21:11:50 10° SW 21:12:18 13° SSW 21:12:18 13° SSW visible
24 Sep -2.3 20:20:28 10° SSW 20:22:51 21° SSE 20:22:51 21° SSE visible
25 Sep -1.8 19:29:25 10° S 19:31:20 15° SE 19:33:16 10° ESE visible
25 Sep -2.2 21:04:08 10° SW 21:05:57 26° SSW 21:05:57 26° SSW visible
26 Sep -2.8 20:12:29 10° SW 20:15:28 31° SSE 20:16:13 27° SE visible
26 Sep -0.9 21:48:25 10° WSW 21:48:54 13° WSW 21:48:54 13° WSW visible
27 Sep -2.3 19:21:00 10° SSW 19:23:42 23° SSE 19:26:24 10° E visible
27 Sep -2.9 20:56:34 10° WSW 20:59:04 40° SW 20:59:04 40° SW visible
28 Sep -3.3 20:04:47 10° WSW 20:07:56 42° SSE 20:09:10 28° ESE visible
28 Sep -1.2 21:40:58 10° W 21:41:51 17° WSW 21:41:51 17° WSW visible
29 Sep -2.8 19:13:03 10° SW 19:16:05 34° SSE 19:19:08 10° E visible
29 Sep -3.3 20:49:04 10° WSW 20:51:53 49° SSW 20:51:53 49° SSW visible
30 Sep -3.5 19:57:11 10° WSW 20:00:25 51° S 20:01:53 27° ESE visible
30 Sep -1.2 21:33:31 10° W 21:34:33 18° WSW 21:34:33 18° WSW visible
